Location: Newark
(51.0500°N, 12.4500°E)
Time: 16:05:49
(UTC+00:00)

Courier 1B - All Passes

Search period start: 21 February 2020 00:00
Search period end: 02 March 2020 00:00
Orbit: 962 x 1209 km, 28.3° (Epoch: 21 February)

Date Brightness Start Highest point End Pass type
(mag) Time Alt. Az. Time Alt. Az. Time Alt. Az.
22 Feb - 16:42:14 10° SSW 16:43:25 10° S 16:44:35 10° S daylight
23 Feb - 15:48:17 10° SSW 15:49:59 11° S 15:51:40 10° SSE daylight
24 Feb - 14:54:52 10° S 14:56:32 11° S 14:58:11 10° SSE daylight
25 Feb - 14:02:11 10° S 14:03:04 10° S 14:03:57 10° SSE daylight
25 Feb - 15:53:57 10° SSW 15:55:36 11° S 15:57:15 10° S daylight
26 Feb - 14:59:50 10° SSW 15:02:08 11° S 15:04:26 10° SSE daylight
27 Feb - 14:06:12 10° SSW 14:08:40 12° S 14:11:06 10° SSE daylight
28 Feb - 13:12:57 10° S 13:15:10 11° S 13:17:23 10° SSE daylight
28 Feb - 15:06:06 10° SSW 15:07:44 11° S 15:09:22 10° S daylight
29 Feb - 12:20:22 10° S 12:21:41 10° S 12:23:00 10° SSE daylight
29 Feb - 14:11:47 10° SSW 14:14:15 12° S 14:16:44 10° SSE daylight
01 Mar - 13:18:00 10° SSW 13:20:46 12° S 13:23:31 10° SSE daylight
